Notices

What's New in latest Release from April 7th, 2021:

- Updated Glossary, including Speed of Maximum Gust, and Total Hourly Precipitation

- Updated national and regional climate services offices contacts and prices information

- Addition of station inventory lists for 1981-2010, 1971-2000, and 1961-1990 Normals.

If you haven't already, please take our survey and provide feedback about our website: https://eccc.sondage-survey.ca/f/LanguageSelection.aspx?s=442ca660-fcf1-47c0-95a9-59707d6fd709

Hourly Data Report for January 03, 2020

SATURNA ISLAND CS
BRITISH COLUMBIA
Current Station Operator: ECCC - MSC

48°47'02.067" N
123°02'41.082" W
24.40 m
1017101
71473
WEZ

Download Data

Hourly Data (January 2020)
Hourly Data Report for January 3, 2020
TIME
LST
Temp Definition
°C
Dew Point Definition
°C
Rel Hum Definition
%
Precip. Amount Definition
mm

Wind Dir Definition
10's deg

Wind Spd Definition
km/h
Visibility Definition
km
Stn Press Definition
kPa
Hmdx Definition


Wind Chill Definition


Weather Definition


00:00 8.4 7.2 92 0.0 17 41   100.73     LegendNANA
01:00 8.9 7.4 91 0.0 17 41   100.66     LegendNANA
02:00 9.2 7.8 91 0.2 18 41   100.70     LegendNANA
03:00 9.1 8.1 94 1.0 17 40   100.65     LegendNANA
04:00 9.5 8.2 92 0.4 17 47   100.60     LegendNANA
05:00 9.5 8.3 92 0.6 17 49   100.46     LegendNANA
06:00 9.6 8.6 94 1.2 18 56   100.42     LegendNANA
07:00 9.8 8.5 92 1.0 19 37   100.46     LegendNANA
08:00 10.0 8.0 87 0.0 17 58   100.57     LegendNANA
09:00 10.6 7.1 79 0.0 17 55   100.64     LegendNANA
10:00 10.6 6.8 77 0.0 17 43   100.79     LegendNANA
11:00 11.0 6.3 73 0.0 12 22   100.74     LegendNANA
12:00 11.2 6.2 71 0.0 17 30   100.65     LegendNANA
13:00 11.4 5.9 69 0.0 17 46   100.48     LegendNANA
14:00 11.8 4.8 62 0.0 15 44   100.34     LegendNANA
15:00 12.1 3.9 57 0.0 17 54   100.15     LegendNANA
16:00 12.3 3.8 56 0.0 18 58   100.04     LegendNANA
17:00 12.7 2.7 51 0.0 18 61   99.85     LegendNANA
18:00 12.3 3.3 54 0.0 18 60   99.76     LegendNANA
19:00 11.1 4.9 66 0.2 19 64   99.76     LegendNANA
20:00 8.9 7.7 92 2.8 22 30   99.97     LegendNANA
21:00 8.5 7.7 95 1.0 21 37   100.06     LegendNANA
22:00 8.1 7.2 94 0.0 22 33   100.13     LegendNANA
23:00 7.9 6.4 91 0.0 23 27   100.23     LegendNANA

Notes on Data Quality.

Legend

  • E = Estimated
  • M = Missing
  • NA = Not Available*
  • [empty] = Indicates an unobserved value
Date modified: